Location: Karcze
(52.0945°N, 22.4786°E)
Time: 07:44:14
(UTC+00:00)

Transit 2A Rocket - Pass Details

Date: 06 August 2021
Orbit: 586 x 917 km, 66.7° (Epoch: 24 September)

Event Time Altitude Azimuth Distance (km) Brightness Sun altitude
Rises 10:20:22 0° 167° (SSE) 2,863 8.5 54.3°
Reaches altitude 10° 10:23:14 10° 147° (SSE) 2,005 7.9 54.4°
Maximum altitude 10:26:06 17° 107° (ESE) 1,652 7.2 54.4°
Drops below altitude 10° 10:29:07 10° 68° (ENE) 2,126 7.3 54.4°
Sets 10:32:16 0° 48° (NE) 3,117 7.9 54.5°
